EZY25KW EGKK-EGHQ

Flight info

Callsign EZY25KW
Flight time N/A
Altitude 30000
Route IMVUR N63 SAM L620 GIBSO DCT DAWLY
Aircraft A320/M-SDE3FGHIRWY/LB1

Departure

Time N/A
Airport London Gatwick Airport (EGKK)

Arrival

Time 2026-05-09 13:05
Airport Cornwall Airport Newquay (EGHQ)
Time Latitude Longitude Altitude Speed Heading
2026-05-09 13:04 50.45724 -5.03926 753 ft 126 kts 117°
2026-05-09 13:04 50.45279 -5.02739 576 ft 126 kts 117°
2026-05-09 13:05 50.44832 -5.01551 403 ft 127 kts 116°
2026-05-09 13:05 50.44401 -5.00397 331 ft 109 kts 118°
2026-05-09 13:05 50.44075 -4.99525 356 ft 75 kts 120°
2026-05-09 13:05 50.43872 -4.98991 363 ft 37 kts 121°
2026-05-09 13:06 50.43767 -4.98702 364 ft 28 kts 116°
2026-05-09 13:06 50.43671 -4.98452 371 ft 25 kts 122°
2026-05-09 13:06 50.43587 -4.98232 383 ft 21 kts 119°
2026-05-09 13:06 50.43526 -4.98037 390 ft 17 kts 89°
2026-05-09 13:07 50.43500 -4.97887 393 ft 13 kts 86°
2026-05-09 13:07 50.43579 -4.97848 395 ft 15 kts 349°
2026-05-09 13:07 50.43680 -4.97945 392 ft 20 kts 315°
2026-05-09 13:07 50.43759 -4.98146 387 ft 24 kts 301°
2026-05-09 13:08 50.43854 -4.98398 382 ft 29 kts 300°
2026-05-09 13:08 50.43964 -4.98692 375 ft 33 kts 300°
2026-05-09 13:08 50.44093 -4.99032 363 ft 37 kts 301°
2026-05-09 13:08 50.44228 -4.99389 358 ft 38 kts 300°
2026-05-09 13:09 50.44355 -4.99730 352 ft 32 kts 301°
2026-05-09 13:09 50.44472 -5.00039 346 ft 33 kts 302°
2026-05-09 13:09 50.44556 -5.00262 334 ft 19 kts 301°
2026-05-09 13:09 50.44604 -5.00357 333 ft 5 kts 350°
2026-05-09 13:10 50.44617 -5.00339 336 ft 1 kts 57°
2026-05-09 13:10 50.44619 -5.00328 334 ft 4 kts 67°
2026-05-09 13:10 50.44624 -5.00299 336 ft 0 kts 77°